Theta_e
257 262 251 256 259 259 254 258 260 259 259 265 267 269 270 271 265 264 265 266 267 267 267 268 268 269 269 270 270 270 270 270 270 271 273 273 273 275 276 277 278 280 281 283
258 251 249 251 259 259 261 262 261 263 262 266 264 269 270 270 265 263 264 265 266 267 267 268 268 268 269 269 269 270 270 270 272 274 275 275 274 274 276 277 278 280 282 284
252 253 252 255 258 255 256 257 262 260 264 263 267 268 270 268 266 263 262 264 265 266 267 268 268 268 268 268 270 270 269 271 273 276 279 279 276 275 275 276 278 280 282 285
254 254 248 261 258 258 258 260 260 262 266 265 265 266 269 263 263 265 263 265 266 267 267 268 268 268 268 269 270 269 269 271 273 276 280 278 277 276 276 278 279 281 283 284
253 246 257 262 264 264 261 261 264 265 266 262 261 262 265 263 260 263 263 264 265 266 268 268 268 267 267 268 269 268 268 271 273 276 279 282 279 279 280 281 283 283 284 286
252 256 250 258 264 265 264 258 268 260 260 257 269 265 265 268 266 266 263 265 266 268 267 268 267 267 267 267 267 266 268 271 273 277 278 279 282 285 285 285 285 286 286 289
254 260 259 262 270 272 258 260 260 258 260 263 266 266 271 270 269 262 262 265 266 265 265 266 266 266 266 267 265 266 270 271 273 275 277 279 280 282 284 285 285 285 285 286
254 252 254 267 271 267 267 267 264 260 260 262 264 266 266 267 268 267 264 267 266 265 266 265 265 265 265 265 265 267 270 270 271 273 276 279 279 280 281 282 282 283 284 284
262 261 265 267 269 268 265 269 267 267 267 269 270 270 271 271 271 270 268 268 268 265 265 264 264 264 263 264 265 266 269 269 270 272 274 278 279 280 279 280 281 281 281 282
264 268 268 268 269 270 269 273 274 272 271 271 269 270 269 270 272 271 269 267 267 266 265 265 264 264 262 263 263 266 267 268 269 270 271 273 277 279 281 280 280 281 281 281
267 271 270 271 273 274 273 271 272 270 269 269 269 268 268 269 270 271 270 268 265 264 265 264 263 263 261 261 262 265 267 267 267 269 269 270 273 275 277 281 283 281 282 282
265 271 271 272 274 273 271 271 270 269 268 269 268 268 268 267 268 269 269 267 265 264 262 262 261 261 260 260 261 262 265 265 266 267 267 269 270 272 278 279 282 285 286 284
271 273 273 273 273 270 269 269 268 267 267 266 267 266 264 264 265 266 264 263 263 262 259 257 258 259 257 258 260 261 261 263 264 265 266 266 267 268 268 274 278 279 283 284
272 271 270 271 268 268 267 265 264 262 262 264 263 261 260 260 261 261 262 262 259 255 254 252 253 255 254 256 259 260 261 262 262 263 263 264 265 266 267 268 269 270 275 278
269 269 268 267 267 265 264 263 261 262 262 261 259 259 258 258 259 260 259 258 254 251 251 252 253 255 251 253 257 258 261 261 260 262 262 263 264 265 266 267 268 269 270 273
265 264 264 264 263 261 260 258 257 259 259 258 257 258 259 259 259 259 256 251 255 257 253 250 254 253 249 251 254 256 258 261 259 259 260 261 262 263 263 264 265 266 269 268
264 264 261 261 260 258 256 257 258 257 257 256 257 258 257 257 256 258 258 254 253 253 252 252 254 252 249 249 251 253 253 256 257 259 258 258 259 260 261 261 262 262 264 271
259 260 259 260 258 254 253 253 253 254 252 255 256 257 256 256 257 258 259 258 259 258 257 253 251 252 253 251 250 250 251 251 252 252 255 257 257 258 259 259 259 260 261 263
259 260 259 259 257 255 254 252 251 250 250 249 251 255 256 256 255 254 255 258 261 262 257 255 263 256 256 257 254 251 251 252 252 251 251 254 255 255 256 256 257 257 258 259
259 256 253 254 252 252 254 252 249 248 248 245 247 248 251 252 253 255 255 256 257 259 258 257 256 256 254 255 257 253 251 251 251 251 250 251 251 252 253 254 254 255 255 256
258 254 253 249 248 247 249 247 245 248 248 245 246 247 247 251 248 248 253 255 255 258 258 259 258 258 257 257 255 253 251 251 250 249 249 249 251 251 251 251 251 253 253 254
256 253 249 247 246 250 248 245 243 244 245 246 246 245 246 250 249 249 249 252 252 253 253 255 257 256 256 258 256 255 253 250 250 249 249 249 249 251 251 251 252 251 251 250
254 249 247 247 248 249 248 245 245 245 246 246 247 247 248 249 249 250 252 251 249 250 250 249 251 257 258 252 250 250 250 250 251 250 249 248 249 249 249 250 250 250 250 250
253 247 247 246 244 246 249 249 246 247 246 247 250 251 249 250 250 251 250 251 252 251 250 250 252 262 258 250 249 249 249 249 250 250 250 252 248 249 249 249 250 249 249 249
252 249 245 246 247 249 246 246 248 247 248 248 248 249 250 251 252 251 249 252 254 253 251 254 261 262 250 248 248 248 248 248 248 248 249 249 249 248 248 248 248 249 248 248
251 250 248 246 249 249 249 249 249 250 248 250 251 248 249 249 251 252 252 253 251 252 251 252 250 250 249 249 249 249 250 250 251 250 249 249 248 248 248 249 248 249 248 248
252 251 248 250 250 250 250 250 248 252 249 248 250 252 248 250 250 251 252 252 253 253 253 252 252 253 251 251 251 252 252 252 253 252 250 250 249 249 250 250 249 249 248 248
Wind_Speed
9 17 4 9 17 11 8 9 5 10 7 17 14 16 15 13 10 12 14 15 14 15 17 18 19 20 20 20 20 19 18 18 20 20 20 19 19 20 19 19 19 19 18 19
10 3 4 6 10 10 12 6 7 10 13 9 9 11 12 10 10 11 14 14 14 16 18 19 20 21 22 22 21 19 19 20 20 19 19 19 19 19 19 18 19 18 18 18
8 3 4 4 7 5 5 4 4 3 9 6 13 15 14 9 10 10 13 12 13 15 16 18 19 19 21 22 20 20 19 20 20 19 17 15 17 18 18 17 18 18 19 17
6 6 4 8 2 5 7 8 6 6 9 9 11 10 16 5 7 11 11 10 13 13 17 18 19 20 21 20 20 20 20 21 22 22 16 7 13 15 15 15 17 17 19 18
2 3 7 6 4 2 4 8 6 5 8 8 7 5 8 5 5 8 9 10 9 9 14 15 17 19 19 20 20 20 22 23 23 21 18 2 10 13 13 14 13 13 15 17
1 4 6 9 6 4 4 5 6 5 6 5 9 9 6 8 6 10 9 7 8 11 12 13 18 19 18 18 21 21 21 21 20 20 18 14 8 10 10 10 9 10 13 12
6 8 9 8 5 6 5 8 5 5 6 4 3 6 13 14 12 5 6 10 6 7 8 13 14 16 18 18 21 22 20 20 21 21 19 17 13 11 9 8 8 7 8 5
1 0 9 6 4 4 8 5 4 4 5 5 8 10 7 9 10 11 8 11 4 7 7 10 13 14 16 19 19 19 20 20 21 21 17 15 17 15 14 11 12 10 9 7
9 9 7 6 9 7 5 6 4 4 4 5 10 10 11 9 10 11 7 8 5 5 7 6 12 12 15 18 18 18 18 20 20 20 20 19 18 17 13 13 11 9 7 7
4 8 13 9 5 6 6 4 4 3 6 6 10 11 12 10 9 10 7 6 5 5 8 8 11 12 11 15 17 15 16 17 17 18 19 19 17 15 15 13 10 8 9 9
9 15 10 7 4 3 1 3 4 4 5 6 7 10 9 11 10 10 9 6 5 6 4 6 8 11 11 14 14 15 15 16 16 15 17 15 15 17 17 20 20 12 13 13
9 12 9 9 4 1 2 3 4 7 6 5 8 9 10 11 9 10 11 6 5 6 5 6 5 8 12 12 12 12 13 13 13 12 13 13 12 11 27 33 38 35 33 22
15 9 7 3 2 3 3 4 5 8 9 10 6 7 9 11 9 10 10 6 6 6 6 5 4 4 9 12 11 11 10 11 10 12 11 12 13 14 15 17 30 36 36 36
7 5 4 4 3 1 2 2 3 5 6 5 7 5 5 8 11 7 6 7 6 3 6 6 6 4 5 7 10 10 10 11 8 8 9 8 9 9 8 11 13 14 22 29
5 2 2 1 1 3 3 4 5 6 6 8 5 8 7 9 9 10 6 6 2 3 4 7 6 6 4 7 6 8 8 8 7 6 6 8 8 7 7 7 9 10 10 15
2 2 3 1 1 2 3 4 3 6 6 6 7 7 9 9 9 9 3 1 2 3 4 4 7 3 5 5 6 5 6 10 7 6 7 9 8 8 10 10 10 10 11 11
2 2 0 2 2 2 2 3 4 5 6 7 9 10 9 7 6 5 3 2 2 1 2 2 6 7 4 4 4 4 3 6 8 6 6 5 7 9 9 8 8 8 9 13
2 0 1 3 3 3 4 4 4 5 3 7 8 8 6 6 6 6 5 2 2 3 3 4 4 6 6 4 3 3 3 3 4 5 5 7 6 5 5 5 6 7 7 10
1 2 1 3 3 4 4 4 3 4 6 5 6 7 6 5 5 4 3 3 4 5 2 4 4 4 6 8 4 3 3 4 4 3 4 5 5 6 6 6 6 6 6 7
1 1 1 3 2 3 4 4 4 5 5 3 4 5 6 5 6 6 4 3 1 1 2 1 1 2 4 7 8 4 4 4 5 3 2 3 4 5 4 6 5 5 5 5
2 1 3 3 4 4 5 3 3 4 6 2 2 4 5 7 5 4 4 1 4 3 2 1 2 0 1 1 3 4 5 4 3 4 4 4 4 3 3 2 3 4 4 4
1 1 3 3 3 5 4 4 4 4 4 4 3 3 4 5 5 4 3 3 4 5 3 2 1 2 3 3 0 1 2 3 4 3 2 2 2 4 4 4 3 2 2 3
2 2 2 3 3 4 6 3 3 3 4 4 4 4 3 3 3 0 2 3 3 4 3 3 4 4 3 3 3 2 1 2 2 3 4 3 2 1 1 1 1 2 3 3
1 2 3 3 2 2 3 4 4 4 4 5 6 5 3 3 3 4 3 5 6 4 3 4 4 5 2 2 3 3 3 3 2 3 3 3 3 3 4 2 1 1 0 1
3 2 2 2 2 3 3 4 5 4 4 5 5 4 5 4 4 3 3 4 6 4 4 4 5 4 1 2 2 3 3 3 4 4 3 3 3 3 3 3 4 3 2 1
1 3 3 4 4 3 3 1 3 3 2 4 4 3 3 2 3 4 4 5 4 4 4 3 3 3 3 3 4 4 4 3 3 3 4 4 4 3 3 3 4 3 3 3
2 2 2 2 1 1 2 3 2 4 3 2 4 5 3 4 4 4 4 4 4 4 4 4 3 4 3 4 4 4 4 4 5 4 4 4 4 4 4 4 3 3 3 3
Wind_Direction
249 257 184 257 267 270 186 219 228 277 280 290 291 308 310 306 299 318 319 325 331 320 319 316 315 315 315 311 306 304 297 292 282 272 258 242 231 225 220 219 221 221 220 226
286 348 165 253 262 248 244 253 244 264 276 250 273 294 315 313 312 314 313 319 322 319 319 320 320 318 317 315 313 311 308 299 292 283 262 234 217 211 210 209 215 216 218 214
271 313 339 341 235 222 261 226 192 249 247 312 313 319 319 309 302 298 298 306 312 317 318 318 319 318 315 318 318 322 318 317 317 314 297 205 193 193 198 202 207 211 215 214
263 352 1 244 241 184 211 253 211 269 276 271 272 276 294 250 257 296 293 308 319 321 318 321 320 326 325 326 330 330 329 333 335 339 344 125 164 179 186 197 202 206 210 209
204 198 286 319 274 203 159 279 197 253 293 280 277 300 298 237 234 266 272 285 284 295 307 316 327 329 331 332 336 340 341 341 343 350 353 61 171 178 184 190 192 198 210 206
70 243 232 229 258 162 111 291 219 185 264 280 323 336 282 307 284 298 278 277 296 319 314 331 335 333 337 343 340 347 340 343 347 359 5 11 34 178 172 179 190 195 198 201
242 257 273 232 243 126 85 247 248 193 241 264 265 229 291 308 307 251 264 293 303 318 322 324 334 339 345 349 349 334 342 349 358 0 10 16 29 44 84 107 109 119 116 131
106 89 277 200 132 176 222 284 233 250 236 257 257 283 281 291 298 304 302 308 354 331 337 319 340 349 349 354 338 337 347 356 360 4 7 13 31 37 47 58 72 72 89 86
184 217 226 215 231 243 190 221 252 239 249 265 297 301 311 311 313 306 302 299 322 337 332 327 342 357 349 342 341 341 354 359 359 7 13 17 25 38 36 40 54 62 67 86
46 250 253 265 249 231 187 232 283 288 304 298 301 310 307 313 317 317 306 301 309 356 336 3 343 350 349 341 340 347 1 5 1 10 8 14 22 25 39 44 42 51 57 70
253 276 278 279 269 143 317 245 292 291 272 295 308 306 300 317 321 315 307 300 307 327 344 355 343 346 352 346 347 356 4 6 11 8 10 8 14 25 27 33 38 45 52 58
241 255 237 264 161 137 291 317 322 317 312 308 306 312 321 309 313 313 317 298 297 312 333 343 25 348 348 350 352 4 13 5 7 9 7 9 11 17 32 34 34 42 48 53
243 252 219 254 112 77 322 332 323 313 311 310 312 322 320 309 308 317 311 302 289 294 313 331 23 16 351 341 350 10 20 4 1 11 18 6 8 15 12 9 35 35 40 47
227 150 255 188 185 34 1 323 326 293 285 303 312 307 291 298 302 304 302 305 283 304 319 326 341 57 341 342 350 5 5 19 13 13 2 19 16 15 19 25 19 14 21 34
125 43 62 54 90 51 6 351 331 322 330 320 314 306 310 306 301 301 299 303 293 322 316 323 336 343 30 347 21 7 9 4 5 8 22 16 12 54 47 39 44 42 24 22
107 103 95 125 314 19 354 342 307 311 313 313 306 301 298 292 284 286 319 271 171 261 278 315 312 325 347 14 2 18 4 16 11 11 13 19 36 37 19 28 38 35 41 33
112 267 199 268 223 299 271 278 283 294 305 304 298 305 306 296 295 320 31 70 49 77 270 305 302 324 352 13 43 8 12 356 5 22 32 33 30 18 16 28 37 47 38 42
68 78 250 257 276 278 293 268 284 292 266 294 302 302 313 351 333 329 0 62 95 66 360 328 319 319 331 358 16 40 33 44 10 27 0 17 36 58 52 56 42 34 21 27
216 267 278 262 266 268 282 286 272 279 299 312 338 333 322 329 323 311 327 15 66 101 13 330 315 2 334 328 8 14 42 18 76 18 15 8 31 18 42 43 37 42 38 41
260 288 310 291 312 223 264 257 287 303 291 333 323 343 341 331 335 335 353 55 21 77 131 125 335 352 333 334 352 358 12 34 5 25 47 54 32 26 18 30 43 32 43 52
268 253 290 289 285 277 249 251 262 295 309 346 4 308 297 302 324 324 33 21 317 357 22 100 140 131 310 330 352 347 345 351 32 9 359 4 11 27 43 58 35 33 30 24
205 238 261 272 274 296 276 262 244 271 291 319 296 286 328 322 338 338 221 184 293 322 317 318 313 187 174 156 297 289 317 329 329 343 4 9 26 2 356 358 17 42 42 40
242 223 256 272 263 274 302 286 263 252 277 266 272 284 262 254 239 42 323 254 275 288 279 278 277 267 217 148 159 173 221 267 278 290 307 315 307 280 192 216 306 341 356 15
242 241 249 268 274 359 337 288 303 286 242 264 258 246 221 306 313 228 265 296 290 285 267 264 271 267 185 161 169 180 179 181 220 272 281 264 277 299 307 302 283 224 234 13
241 271 260 358 334 264 260 279 309 309 329 312 291 269 225 216 197 263 267 286 292 301 290 289 292 304 156 196 203 203 204 202 199 177 190 219 252 251 255 269 282 294 302 237
211 253 239 220 234 245 257 298 268 280 298 313 302 269 280 261 251 260 273 270 268 271 262 267 256 251 221 209 210 215 214 211 206 210 199 196 193 212 239 258 269 264 250 263
250 250 314 319 277 234 250 240 249 278 244 232 258 270 248 284 282 276 272 278 275 273 268 267 255 249 235 232 230 224 215 212 209 207 202 204 197 199 195 211 241 266 289 292